Theta_e
349 352 354 355 354 352 351 352 353 351 350 336 350 352 353 355 353 354 352 354 353 353 352 354 353 354 355 347 348 349 349 351 352 349 349 350 356 353 350 354 353 351 353
337 348 354 354 354 352 350 356 352 353 352 352 344 346 350 354 353 352 352 350 352 351 351 352 351 353 352 353 354 355 356 356 357 354 354 357 356 350 353 354 355 349 349
340 348 354 355 356 354 354 353 356 354 354 354 352 352 352 352 354 352 353 353 353 354 354 353 352 350 351 351 351 351 351 351 353 352 352 351 351 354 349 346 346 350 348
341 346 348 353 354 353 355 357 357 356 354 353 353 353 355 354 352 354 352 352 354 351 353 354 355 354 355 354 353 352 351 354 354 355 356 355 351 350 348 351 348 347 346
343 346 343 348 350 352 353 354 356 357 356 354 354 354 355 354 353 354 355 352 354 353 349 353 356 356 352 354 355 353 351 352 356 357 358 354 351 344 352 351 342 345 345
336 338 341 347 347 345 346 353 354 354 354 356 355 354 354 356 355 355 353 353 355 354 353 352 350 351 356 356 354 352 350 349 348 348 347 349 348 346 345 343 344 350 355
330 329 328 333 336 340 341 344 349 352 353 354 354 354 356 356 355 354 352 348 353 355 357 355 353 352 351 351 355 356 351 351 349 345 344 342 342 339 340 342 344 349 352
330 331 332 332 328 326 328 336 339 341 347 349 352 353 354 354 355 356 353 353 353 351 347 349 354 354 353 352 353 354 355 355 356 354 352 353 353 350 351 350 349 351 353
324 323 324 326 332 333 330 327 327 333 338 343 344 348 351 353 353 353 354 354 354 355 354 352 350 349 351 352 353 353 355 357 355 355 357 358 357 351 353 354 352 355 354
320 320 321 322 324 324 332 332 331 328 325 328 335 336 341 347 350 352 352 352 353 354 354 355 354 354 352 351 348 350 354 355 358 358 356 354 356 356 353 350 350 352 353
317 318 318 318 320 322 323 326 332 332 331 328 329 333 336 338 341 345 348 349 351 351 352 353 355 355 355 354 354 351 350 350 352 353 355 357 356 356 355 355 354 352 353
316 317 317 317 317 317 319 322 325 329 331 332 328 327 331 336 340 343 345 347 350 349 350 351 353 354 352 351 351 352 353 352 352 350 349 351 353 354 354 353 352 350 349
313 314 314 316 317 317 317 317 318 322 325 326 331 327 326 326 326 331 343 344 345 342 340 342 347 349 350 351 353 352 351 351 351 346 346 346 347 349 351 352 351 350 348
312 313 313 314 315 316 317 317 318 320 323 325 330 328 327 327 326 324 323 325 324 322 323 328 334 341 342 344 346 347 348 350 350 349 349 349 349 348 349 350 350 350 349
310 312 313 315 315 315 315 315 315 316 318 320 322 323 324 325 323 324 323 323 321 322 327 325 323 323 327 332 339 344 349 353 352 352 349 348 349 349 348 349 350 351 351
309 310 313 313 314 314 314 315 315 315 317 318 320 319 320 321 321 323 323 323 324 327 327 325 323 323 328 334 338 342 345 348 350 352 352 351 350 350 351 351 353 353 352
307 307 308 310 313 313 314 315 315 315 316 316 316 319 321 322 322 322 323 323 323 326 325 325 324 328 333 338 340 342 344 346 348 349 350 350 350 352 353 352 352 352 351
305 306 307 308 308 308 310 310 311 313 314 316 317 318 318 320 322 322 321 322 323 326 325 327 330 331 331 332 336 339 341 344 346 349 351 351 350 350 349 345 342 337 340
305 306 306 306 306 307 307 309 310 311 313 314 315 316 318 318 319 319 319 321 324 325 325 328 325 324 324 324 326 328 333 338 344 347 348 349 349 349 347 342 343 338 337
305 305 304 304 304 305 305 307 308 309 311 312 313 315 316 316 315 317 322 323 325 326 327 322 319 318 317 315 317 321 323 330 335 338 340 348 348 347 345 344 342 337 337
302 302 302 302 303 303 304 304 305 307 309 310 311 312 313 314 315 318 320 327 324 321 319 317 314 312 311 311 312 314 317 320 326 332 334 337 338 341 342 340 342 343 343
301 301 300 300 301 301 302 302 303 304 305 307 309 310 311 312 315 316 316 315 314 313 312 310 309 309 309 309 309 309 309 312 316 320 324 329 331 333 335 337 339 341 345
299 298 298 297 297 298 298 299 300 301 302 304 305 306 309 311 312 312 311 311 310 309 308 307 307 307 308 307 307 307 306 308 310 312 316 320 326 327 328 331 333 335 337
299 298 297 297 296 296 296 296 297 297 298 299 301 303 304 307 308 308 308 306 305 305 305 306 305 306 306 305 304 305 306 307 307 310 313 316 319 324 324 327 330 332 334
300 299 298 297 296 295 295 295 295 295 295 296 296 297 299 300 302 303 302 302 301 301 302 303 303 303 303 301 302 302 304 307 308 311 312 315 316 321 323 325 328 332 335
300 300 299 298 296 295 294 293 293 293 293 294 295 295 296 297 297 298 299 298 298 299 299 300 301 300 299 298 300 301 302 304 308 311 312 314 315 319 322 325 328 329 331
Wind_Speed
13 10 23 21 19 20 15 11 12 12 9 13 17 16 16 13 11 10 10 8 8 11 11 8 8 6 9 11 11 12 10 9 7 14 16 17 16 17 17 17 16 16 16
15 19 21 22 21 21 23 17 15 14 11 10 17 20 17 15 13 12 11 12 8 12 11 10 9 7 10 10 11 12 11 12 12 13 17 18 21 24 23 25 15 13 14
10 15 19 24 22 23 24 24 17 16 16 15 15 17 14 14 14 14 13 11 13 11 13 11 11 10 12 12 12 15 16 17 16 16 17 18 22 25 14 13 13 13 16
4 8 7 12 17 20 21 20 18 18 17 19 18 16 17 17 15 15 15 15 15 14 12 13 15 15 16 16 17 15 15 16 17 17 19 19 15 10 16 15 16 16 18
6 5 8 10 5 8 15 16 18 14 18 18 19 20 19 19 19 19 18 17 20 19 17 17 16 16 18 18 18 19 17 16 17 14 15 16 19 20 16 16 21 22 20
13 11 8 10 7 11 8 6 14 15 17 16 18 19 20 19 20 20 21 22 22 23 20 19 20 19 19 17 20 23 23 21 22 22 23 21 24 22 22 24 23 21 6
25 24 18 11 8 7 9 8 4 5 9 12 15 17 20 20 21 21 21 21 23 23 21 21 21 22 21 21 18 25 27 25 25 25 26 27 27 28 27 26 23 21 21
18 16 16 18 17 14 12 10 9 8 4 4 4 9 16 20 20 22 23 24 23 22 21 21 22 22 22 23 25 23 23 23 25 26 27 29 27 22 24 25 24 24 27
19 18 18 18 14 15 18 16 14 10 9 7 7 7 5 10 15 19 23 24 24 27 26 25 25 26 26 26 27 31 29 29 30 28 27 27 26 25 26 27 26 23 24
17 15 14 14 12 17 11 14 14 13 12 11 10 9 11 13 10 11 14 21 25 24 21 24 26 27 28 29 32 33 34 34 33 33 33 33 31 31 30 29 30 28 23
12 13 13 14 14 14 13 12 14 16 15 14 12 12 12 12 13 13 13 17 20 24 25 26 24 21 23 26 29 36 36 34 29 30 33 34 34 35 34 32 32 32 30
13 14 15 15 16 16 16 15 15 17 17 17 13 14 14 13 12 15 14 15 16 18 20 20 18 24 29 32 32 28 27 26 30 32 31 31 28 29 31 33 32 32 35
15 15 16 16 15 15 17 18 20 18 19 20 16 13 12 13 13 13 11 11 10 11 13 17 21 27 29 31 32 33 33 30 25 25 28 30 33 32 31 33 35 35 38
18 18 16 16 17 18 17 17 17 19 20 19 16 12 12 15 21 21 18 20 19 20 21 23 25 26 28 28 28 31 31 31 33 37 35 35 34 29 31 35 33 33 30
17 17 20 19 20 20 19 21 21 22 22 25 27 24 22 23 25 21 20 22 23 22 22 23 25 25 28 31 29 27 26 29 28 31 32 31 32 29 30 30 30 30 27
17 18 19 19 20 20 22 22 20 22 21 22 23 24 26 31 30 28 23 21 20 21 23 25 28 26 23 23 23 23 23 27 30 31 31 31 31 28 27 26 27 26 26
16 18 21 21 20 21 21 21 22 22 22 25 25 24 22 25 27 30 28 25 23 22 24 26 22 19 19 20 22 23 24 25 29 32 31 32 30 27 23 25 25 25 25
14 16 18 19 21 21 21 23 24 23 24 24 24 25 25 26 25 24 27 30 26 22 22 16 16 16 20 21 22 23 25 27 28 30 30 28 25 25 27 23 18 22 23
14 15 17 19 20 21 22 23 24 24 24 25 27 26 24 26 30 32 32 27 24 21 16 13 12 17 21 23 26 29 28 31 27 27 28 29 29 27 27 30 34 31 40
12 13 15 18 20 21 21 23 22 23 24 24 24 25 23 26 30 30 36 26 22 17 13 14 17 19 22 25 27 25 29 27 26 24 22 27 28 26 23 24 30 28 30
13 14 15 18 18 19 20 20 22 23 24 24 25 26 25 27 28 28 25 21 10 5 8 14 18 23 26 28 29 27 27 29 27 22 20 21 20 22 29 25 26 35 33
13 15 16 18 19 19 19 20 23 24 25 26 27 26 25 25 23 14 11 12 10 10 15 21 23 25 26 28 30 31 32 31 32 29 28 24 24 24 23 21 21 22 20
9 11 14 17 18 20 21 20 21 22 24 24 24 25 25 23 20 16 14 17 20 25 28 27 26 28 28 29 30 32 33 35 35 35 34 31 28 25 23 21 22 19 18
8 11 14 16 19 20 21 22 22 24 24 24 23 20 20 22 20 17 19 22 26 29 28 29 29 28 29 30 31 30 31 32 34 35 32 32 31 27 23 23 24 23 21
9 11 13 17 19 21 22 23 22 23 23 23 24 25 26 26 25 21 21 25 31 30 29 27 28 28 28 28 27 28 29 29 30 30 30 29 31 27 24 22 21 20 21
12 13 14 17 18 20 21 24 25 24 24 24 23 24 24 25 25 25 24 25 28 28 26 25 25 25 24 23 22 22 23 24 26 26 26 26 25 21 21 20 17 12 9
Wind_Direction
349 260 212 211 215 216 222 201 173 174 219 182 193 194 201 201 200 210 228 219 230 235 248 262 297 304 302 312 302 312 317 339 308 308 318 328 336 327 323 324 322 335 329
326 310 243 213 210 213 219 213 192 184 196 204 214 210 201 203 213 221 225 223 227 230 240 242 250 263 286 300 303 309 314 323 322 304 325 324 318 323 320 319 321 350 357
318 329 243 223 213 212 216 219 209 196 197 199 199 205 212 215 218 224 235 231 223 239 245 243 248 254 264 270 281 286 294 299 304 313 308 312 317 332 22 11 1 6 12
211 342 14 208 218 228 225 218 215 220 216 206 210 214 214 216 227 230 238 242 247 245 246 250 258 257 259 262 263 272 285 293 300 300 299 308 322 332 352 16 357 345 343
76 23 32 42 63 196 224 233 229 224 225 228 221 221 224 225 227 229 232 240 239 244 247 252 258 263 268 265 271 264 266 279 281 292 297 303 309 317 334 337 332 331 331
104 94 68 62 38 25 46 178 214 227 235 232 238 238 236 234 236 236 244 244 241 244 248 251 255 262 274 277 265 262 266 263 265 271 279 285 290 297 300 309 316 315 320
73 71 67 75 59 51 21 40 83 188 216 230 240 246 250 251 249 248 255 255 249 250 249 247 250 257 262 266 288 275 266 266 268 270 272 276 281 289 293 296 300 302 296
62 55 50 46 51 49 48 39 38 40 38 36 232 250 256 250 252 255 254 263 265 263 261 260 256 255 254 263 270 272 273 274 268 267 269 275 282 288 291 291 294 293 292
47 36 31 35 27 16 27 29 25 17 10 338 330 321 320 263 259 259 262 258 266 265 267 268 268 268 268 266 264 270 274 272 270 268 269 272 274 276 285 288 282 279 285
27 20 16 14 14 8 357 5 0 12 5 352 329 319 295 293 284 274 282 271 271 273 275 269 269 272 274 273 268 267 266 268 271 268 267 267 267 269 274 272 274 267 268
13 6 0 357 353 352 347 354 340 338 338 341 337 346 347 341 321 309 307 292 282 276 272 273 268 270 272 271 271 268 264 272 271 275 276 272 270 272 272 270 267 266 258
12 4 357 351 345 341 339 334 333 322 317 314 320 334 345 346 348 341 302 311 285 284 283 281 282 272 270 274 277 280 283 295 288 284 269 270 269 267 266 267 269 271 271
359 355 349 346 340 333 326 322 321 317 312 308 290 294 312 314 334 343 336 328 311 311 314 304 290 283 283 280 277 281 285 286 290 288 270 263 261 262 264 266 269 268 270
351 345 340 338 337 332 328 318 309 307 308 311 305 268 293 300 308 311 302 305 308 309 302 303 301 297 297 295 294 289 291 288 279 267 268 272 272 261 258 261 261 264 264
348 344 342 343 339 335 330 323 321 318 311 304 289 293 294 291 299 303 300 300 298 302 305 307 307 307 301 294 287 281 284 288 274 272 262 261 261 261 257 257 255 258 256
349 342 339 338 332 333 328 327 319 311 314 312 303 297 292 292 290 289 289 293 291 294 298 301 302 302 296 294 285 280 275 273 277 277 272 265 262 265 265 263 259 256 259
342 337 333 333 338 337 334 334 324 330 321 314 300 312 306 309 297 287 285 281 286 290 292 297 291 292 290 289 295 296 291 285 281 279 278 275 266 265 272 280 276 281 276
332 329 329 331 331 331 329 327 323 321 316 317 322 310 303 303 306 303 296 280 274 280 292 294 310 311 310 309 307 301 301 287 281 281 278 280 266 262 256 256 271 291 290
320 319 321 323 321 321 321 318 316 314 312 312 314 315 318 311 306 299 296 285 258 271 276 285 307 314 315 312 310 308 312 302 307 286 280 274 268 262 254 254 252 249 259
328 321 319 317 316 313 312 308 306 309 306 305 309 309 318 324 329 318 301 275 253 252 244 285 306 311 317 318 317 311 309 303 304 303 308 278 259 256 252 257 256 245 251
326 318 314 313 311 309 304 304 304 310 305 301 301 307 311 314 315 325 317 279 224 219 289 307 313 315 317 317 313 310 306 304 300 301 303 295 301 277 267 257 260 255 253
327 324 323 320 316 312 306 303 297 298 297 295 296 298 301 306 314 304 318 324 326 322 321 322 325 323 319 314 310 304 304 299 298 299 294 291 291 290 292 285 281 271 264
324 334 330 324 320 315 312 308 302 298 298 301 302 304 305 297 290 300 304 303 308 316 319 320 323 320 317 312 306 302 299 296 294 291 291 290 286 285 287 283 281 284 286
311 327 326 326 323 317 312 308 306 300 298 300 301 305 310 314 298 287 295 302 308 312 314 315 317 317 314 308 304 299 295 293 290 287 284 281 280 280 277 276 277 277 271
296 310 312 319 321 318 314 309 306 302 297 294 294 294 290 289 293 299 301 300 301 307 314 314 312 313 309 304 300 297 294 291 288 285 278 273 269 269 269 266 262 268 268
283 299 301 307 306 305 310 311 305 305 302 297 294 293 290 290 291 292 292 297 300 304 307 308 309 308 304 303 300 296 297 297 292 285 277 271 264 259 260 256 254 227 212